Time,TemperatureF,DewpointF,PressureIn,WindDirection,WindDirectionDegrees,WindSpeedMPH,WindSpeedGustMPH,Humidity,HourlyPrecipIn,Conditions,Clouds,dailyrainin,SoftwareType,DateUTC
2013-05-25 00:01:00,43.0,41.6,30.00,North,358,3.4,15.0,95,0.00,,,0.00,WUHU216DAVISVP2,2013-05-25 04:01:00,
2013-05-25 00:06:00,43.1,41.8,30.00,North,1,6.9,15.0,95,0.00,,,0.00,WUHU216DAVISVP2,2013-05-25 04:06:00,
2013-05-25 00:11:00,43.1,41.7,30.00,NW,316,8.0,15.0,95,0.00,,,0.00,WUHU216DAVISVP2,2013-05-25 04:11:00,
2013-05-25 00:16:00,43.1,41.7,29.99,NE,34,11.0,13.0,95,0.00,,,0.00,WUHU216DAVISVP2,2013-05-25 04:16:00,
2013-05-25 00:21:00,43.2,41.8,29.98,North,358,15.0,15.0,95,0.00,,,0.00,WUHU216DAVISVP2,2013-05-25 04:21:00,
2013-05-25 00:26:00,43.2,41.8,29.98,NNE,12,8.0,15.0,95,0.00,,,0.00,WUHU216DAVISVP2,2013-05-25 04:26:00,
2013-05-25 00:31:00,43.2,41.9,29.97,NNE,20,8.0,15.0,95,0.00,,,0.00,WUHU216DAVISVP2,2013-05-25 04:31:00,
2013-05-25 00:36:00,43.2,41.9,29.96,NNE,20,11.0,19.0,95,0.00,,,0.00,WUHU216DAVISVP2,2013-05-25 04:36:00,
2013-05-25 00:41:00,43.3,42.0,29.94,North,4,8.3,19.0,95,0.00,,,0.00,WUHU216DAVISVP2,2013-05-25 04:41:00,
2013-05-25 00:46:00,43.3,41.9,29.94,North,358,8.5,19.0,95,0.00,,,0.00,WUHU216DAVISVP2,2013-05-25 04:46:00,
2013-05-25 00:51:00,43.3,41.9,29.94,North,10,7.9,19.0,95,0.00,,,0.00,WUHU216DAVISVP2,2013-05-25 04:51:00,
2013-05-25 00:56:00,43.4,42.0,29.94,NNW,345,8.1,19.0,95,0.00,,,0.00,WUHU216DAVISVP2,2013-05-25 04:56:00,
2013-05-25 01:01:00,43.3,41.9,29.95,NNW,342,3.5,17.0,95,0.00,,,0.00,WUHU216DAVISVP2,2013-05-25 05:01:00,
2013-05-25 01:06:00,43.3,41.9,29.96,NW,311,11.0,14.0,95,0.00,,,0.00,WUHU216DAVISVP2,2013-05-25 05:06:00,
2013-05-25 01:11:00,43.3,41.9,29.97,NNW,330,5.0,14.0,95,0.00,,,0.00,WUHU216DAVISVP2,2013-05-25 05:11:00,
2013-05-25 01:16:00,43.4,42.0,29.98,WNW,287,3.9,13.0,95,0.00,,,0.00,WUHU216DAVISVP2,2013-05-25 05:16:00,
2013-05-25 01:21:00,43.4,42.1,29.97,NNE,32,4.0,13.0,95,0.00,,,0.00,WUHU216DAVISVP2,2013-05-25 05:21:00,
2013-05-25 01:26:00,43.4,42.1,29.96,NNW,328,5.5,12.0,95,0.00,,,0.00,WUHU216DAVISVP2,2013-05-25 05:26:00,
2013-05-25 01:31:00,43.4,42.0,29.96,NNW,327,4.1,10.0,95,0.00,,,0.00,WUHU216DAVISVP2,2013-05-25 05:31:00,
2013-05-25 01:36:00,43.4,42.0,29.96,North,352,5.6,12.0,95,0.00,,,0.00,WUHU216DAVISVP2,2013-05-25 05:36:00,
2013-05-25 01:41:00,43.5,42.1,29.95,NNE,23,8.0,13.0,95,0.00,,,0.00,WUHU216DAVISVP2,2013-05-25 05:41:00,
2013-05-25 01:46:00,43.5,42.1,29.96,NW,307,6.0,13.0,95,0.00,,,0.00,WUHU216DAVISVP2,2013-05-25 05:46:00,
2013-05-25 01:51:00,43.5,42.1,29.96,WNW,292,4.6,13.0,95,0.00,,,0.00,WUHU216DAVISVP2,2013-05-25 05:51:00,
2013-05-25 01:56:00,43.6,42.2,29.95,NW,311,5.0,13.0,95,0.00,,,0.00,WUHU216DAVISVP2,2013-05-25 05:56:00,
2013-05-25 02:01:00,43.5,42.1,29.94,North,355,3.2,11.0,95,0.00,,,0.00,WUHU216DAVISVP2,2013-05-25 06:01:00,
2013-05-25 02:06:00,43.5,42.1,29.94,NW,321,4.6,12.0,95,0.00,,,0.00,WUHU216DAVISVP2,2013-05-25 06:06:00,
2013-05-25 02:11:00,43.5,42.1,29.94,NNW,332,4.9,12.0,95,0.00,,,0.00,WUHU216DAVISVP2,2013-05-25 06:11:00,
2013-05-25 02:16:00,43.5,42.1,29.95,NNW,330,7.0,12.0,95,0.00,,,0.00,WUHU216DAVISVP2,2013-05-25 06:16:00,
2013-05-25 02:21:00,43.5,42.1,29.95,NNE,29,4.0,12.0,95,0.00,,,0.00,WUHU216DAVISVP2,2013-05-25 06:21:00,
2013-05-25 02:26:00,43.4,42.0,29.95,NNW,343,4.9,12.0,95,0.00,,,0.00,WUHU216DAVISVP2,2013-05-25 06:26:00,
2013-05-25 02:31:00,43.4,42.0,29.94,NW,321,4.0,11.0,95,0.00,,,0.00,WUHU216DAVISVP2,2013-05-25 06:31:00,
2013-05-25 02:36:00,43.4,42.3,29.94,NNE,18,6.0,11.0,96,0.00,,,0.00,WUHU216DAVISVP2,2013-05-25 06:36:00,
2013-05-25 02:41:00,43.4,42.3,29.95,NW,320,3.7,11.0,96,0.00,,,0.00,WUHU216DAVISVP2,2013-05-25 06:41:00,
2013-05-25 02:46:00,43.4,42.0,29.94,NW,315,4.8,14.0,95,0.00,,,0.00,WUHU216DAVISVP2,2013-05-25 06:46:00,
2013-05-25 02:51:00,43.4,42.0,29.94,NNW,336,6.0,15.0,95,0.00,,,0.00,WUHU216DAVISVP2,2013-05-25 06:51:00,
2013-05-25 02:56:00,43.4,42.0,29.95,NNW,343,7.0,15.0,95,0.00,,,0.00,WUHU216DAVISVP2,2013-05-25 06:56:00,
2013-05-25 03:01:00,43.5,42.1,29.95,NW,315,4.5,14.0,95,0.00,,,0.00,WUHU216DAVISVP2,2013-05-25 07:01:00,
2013-05-25 03:06:00,43.5,42.1,29.95,North,351,4.2,14.0,95,0.00,,,0.00,WUHU216DAVISVP2,2013-05-25 07:06:00,
2013-05-25 03:11:00,43.5,42.1,29.95,North,5,4.0,12.0,95,0.00,,,0.00,WUHU216DAVISVP2,2013-05-25 07:11:00,
2013-05-25 03:16:00,43.5,42.1,29.94,NNW,333,4.3,9.0,95,0.00,,,0.00,WUHU216DAVISVP2,2013-05-25 07:16:00,
2013-05-25 03:21:00,43.4,42.0,29.94,NNW,348,3.8,9.0,95,0.00,,,0.00,WUHU216DAVISVP2,2013-05-25 07:21:00,
2013-05-25 03:26:00,43.4,42.3,29.94,NW,309,10.0,13.0,96,0.00,,,0.00,WUHU216DAVISVP2,2013-05-25 07:26:00,
2013-05-25 03:31:00,43.5,42.1,29.94,NNW,343,7.0,14.0,95,0.00,,,0.00,WUHU216DAVISVP2,2013-05-25 07:31:00,
2013-05-25 03:36:00,43.5,42.1,29.94,NNW,339,2.6,14.0,95,0.00,,,0.00,WUHU216DAVISVP2,2013-05-25 07:36:00,
2013-05-25 03:41:00,43.5,42.1,29.94,NNW,348,3.0,14.0,95,0.00,,,0.00,WUHU216DAVISVP2,2013-05-25 07:41:00,
2013-05-25 03:46:00,43.4,42.3,29.94,North,352,3.9,9.0,96,0.00,,,0.00,WUHU216DAVISVP2,2013-05-25 07:46:00,
2013-05-25 03:51:00,43.5,42.4,29.94,NNW,345,3.2,9.0,96,0.00,,,0.00,WUHU216DAVISVP2,2013-05-25 07:51:00,
2013-05-25 03:56:00,43.5,42.4,29.94,NW,317,8.0,16.0,96,0.00,,,0.00,WUHU216DAVISVP2,2013-05-25 07:56:00,
2013-05-25 04:01:00,43.5,42.4,29.94,NW,320,4.0,16.0,96,0.00,,,0.00,WUHU216DAVISVP2,2013-05-25 08:01:00,
2013-05-25 04:06:00,43.5,42.4,29.94,NNW,342,6.2,16.0,96,0.00,,,0.00,WUHU216DAVISVP2,2013-05-25 08:06:00,
2013-05-25 04:11:00,43.5,42.4,29.93,WNW,295,10.0,16.0,96,0.00,,,0.00,WUHU216DAVISVP2,2013-05-25 08:11:00,
2013-05-25 04:16:00,43.5,42.4,29.93,NW,315,8.0,12.0,96,0.00,,,0.00,WUHU216DAVISVP2,2013-05-25 08:16:00,
2013-05-25 04:21:00,43.6,42.5,29.93,NNW,334,4.4,12.0,96,0.00,,,0.00,WUHU216DAVISVP2,2013-05-25 08:21:00,
2013-05-25 04:26:00,43.6,42.5,29.93,NNW,330,7.0,12.0,96,0.00,,,0.00,WUHU216DAVISVP2,2013-05-25 08:26:00,
2013-05-25 04:31:00,43.6,42.5,29.93,NNW,342,7.0,12.0,96,0.00,,,0.00,WUHU216DAVISVP2,2013-05-25 08:31:00,
2013-05-25 04:36:00,43.6,42.5,29.93,WNW,300,5.0,12.0,96,0.00,,,0.00,WUHU216DAVISVP2,2013-05-25 08:36:00,
2013-05-25 04:41:00,43.6,42.5,29.94,NW,309,4.0,12.0,96,0.00,,,0.00,WUHU216DAVISVP2,2013-05-25 08:41:00,
2013-05-25 04:46:00,43.7,42.6,29.94,NW,311,6.0,10.0,96,0.00,,,0.00,WUHU216DAVISVP2,2013-05-25 08:46:00,
2013-05-25 04:51:00,43.7,42.6,29.94,WNW,290,7.0,15.0,96,0.00,,,0.00,WUHU216DAVISVP2,2013-05-25 08:51:00,
2013-05-25 04:56:00,43.7,42.6,29.94,NW,312,6.0,15.0,96,0.00,,,0.00,WUHU216DAVISVP2,2013-05-25 08:56:00,
2013-05-25 05:01:00,43.8,42.7,29.94,NNE,18,8.0,15.0,96,0.00,,,0.00,WUHU216DAVISVP2,2013-05-25 09:01:00,
2013-05-25 05:06:00,43.8,42.4,29.94,NW,305,8.0,15.0,95,0.00,,,0.00,WUHU216DAVISVP2,2013-05-25 09:06:00,
2013-05-25 05:11:00,43.9,42.5,29.94,NNE,27,12.0,14.0,95,0.00,,,0.00,WUHU216DAVISVP2,2013-05-25 09:11:00,
2013-05-25 05:16:00,43.9,42.5,29.94,NNE,16,6.0,16.0,95,0.00,,,0.00,WUHU216DAVISVP2,2013-05-25 09:16:00,
2013-05-25 05:21:00,43.9,42.5,29.94,NW,317,7.4,16.0,95,0.00,,,0.00,WUHU216DAVISVP2,2013-05-25 09:21:00,
2013-05-25 05:26:00,43.8,42.4,29.94,NW,310,5.2,16.0,95,0.00,,,0.00,WUHU216DAVISVP2,2013-05-25 09:26:00,
2013-05-25 05:31:00,43.8,42.7,29.94,NNW,348,5.0,16.0,96,0.00,,,0.00,WUHU216DAVISVP2,2013-05-25 09:31:00,
2013-05-25 05:36:00,43.8,42.7,29.94,NW,321,8.0,15.0,96,0.00,,,0.00,WUHU216DAVISVP2,2013-05-25 09:36:00,
2013-05-25 05:41:00,43.8,42.7,29.94,NNW,337,4.8,15.0,96,0.00,,,0.00,WUHU216DAVISVP2,2013-05-25 09:41:00,
2013-05-25 05:46:00,43.8,42.7,29.94,NW,317,4.0,14.0,96,0.00,,,0.00,WUHU216DAVISVP2,2013-05-25 09:46:00,
2013-05-25 05:51:00,43.7,42.6,29.94,NNW,333,6.0,14.0,96,0.00,,,0.00,WUHU216DAVISVP2,2013-05-25 09:51:00,
2013-05-25 05:56:00,43.7,42.6,29.94,NNE,23,6.0,13.0,96,0.00,,,0.00,WUHU216DAVISVP2,2013-05-25 09:56:00,
2013-05-25 06:01:00,43.7,42.6,29.94,NNW,338,6.5,12.0,96,0.00,,,0.00,WUHU216DAVISVP2,2013-05-25 10:01:00,
2013-05-25 06:06:00,43.7,42.6,29.94,NNW,337,4.6,13.0,96,0.00,,,0.00,WUHU216DAVISVP2,2013-05-25 10:06:00,
2013-05-25 06:11:00,43.6,42.5,29.94,NW,307,6.0,13.0,96,0.00,,,0.00,WUHU216DAVISVP2,2013-05-25 10:11:00,
2013-05-25 06:16:00,43.7,42.6,29.94,NNE,20,8.0,12.0,96,0.00,,,0.00,WUHU216DAVISVP2,2013-05-25 10:16:00,
2013-05-25 06:21:00,43.7,42.6,29.94,WNW,301,6.0,14.0,96,0.00,,,0.00,WUHU216DAVISVP2,2013-05-25 10:21:00,
2013-05-25 06:26:00,43.7,42.6,29.94,NE,34,9.0,14.0,96,0.00,,,0.00,WUHU216DAVISVP2,2013-05-25 10:26:00,
2013-05-25 06:31:00,43.8,42.7,29.94,NW,306,6.3,15.0,96,0.00,,,0.00,WUHU216DAVISVP2,2013-05-25 10:31:00,
2013-05-25 06:36:00,43.9,42.8,29.94,West,279,11.0,15.0,96,0.00,,,0.00,WUHU216DAVISVP2,2013-05-25 10:36:00,
2013-05-25 06:41:00,43.9,42.5,29.95,NNW,333,6.0,15.0,95,0.00,,,0.00,WUHU216DAVISVP2,2013-05-25 10:41:00,
2013-05-25 06:46:00,43.9,42.5,29.95,NNE,12,5.0,15.0,95,0.00,,,0.00,WUHU216DAVISVP2,2013-05-25 10:46:00,
2013-05-25 06:51:00,44.0,42.6,29.95,North,349,6.7,16.0,95,0.00,,,0.00,WUHU216DAVISVP2,2013-05-25 10:51:00,
2013-05-25 06:56:00,44.1,42.7,29.95,North,358,6.9,16.0,95,0.00,,,0.00,WUHU216DAVISVP2,2013-05-25 10:56:00,
2013-05-25 07:01:00,44.1,42.7,29.95,North,355,5.1,15.0,95,0.00,,,0.00,WUHU216DAVISVP2,2013-05-25 11:01:00,
2013-05-25 07:06:00,44.1,42.7,29.95,NW,323,2.4,15.0,95,0.00,,,0.00,WUHU216DAVISVP2,2013-05-25 11:06:00,
2013-05-25 07:11:00,44.1,43.0,29.95,NNW,347,5.2,13.0,96,0.00,,,0.00,WUHU216DAVISVP2,2013-05-25 11:11:00,
2013-05-25 07:16:00,44.1,43.0,29.95,North,8,6.0,13.0,96,0.00,,,0.00,WUHU216DAVISVP2,2013-05-25 11:16:00,
2013-05-25 07:21:00,44.1,43.0,29.95,North,354,3.8,13.0,96,0.00,,,0.00,WUHU216DAVISVP2,2013-05-25 11:21:00,
2013-05-25 07:26:00,44.2,43.1,29.95,NNE,20,4.0,13.0,96,0.00,,,0.00,WUHU216DAVISVP2,2013-05-25 11:26:00,
2013-05-25 07:31:00,44.2,43.1,29.95,NNW,330,5.0,11.0,96,0.00,,,0.00,WUHU216DAVISVP2,2013-05-25 11:31:00,
2013-05-25 07:36:00,44.2,43.1,29.95,NNE,18,5.9,10.0,96,0.00,,,0.00,WUHU216DAVISVP2,2013-05-25 11:36:00,
2013-05-25 07:41:00,44.3,43.2,29.94,NNE,22,5.0,10.0,96,0.00,,,0.00,WUHU216DAVISVP2,2013-05-25 11:41:00,
2013-05-25 07:46:00,44.3,43.2,29.94,North,354,4.6,9.0,96,0.00,,,0.00,WUHU216DAVISVP2,2013-05-25 11:46:00,
2013-05-25 07:51:00,44.4,43.3,29.94,North,359,4.8,9.0,96,0.00,,,0.00,WUHU216DAVISVP2,2013-05-25 11:51:00,
2013-05-25 07:56:00,44.4,43.3,29.95,NNE,20,6.0,10.0,96,0.00,,,0.00,WUHU216DAVISVP2,2013-05-25 11:56:00,
2013-05-25 08:01:00,44.4,43.3,29.94,NNW,345,5.0,10.0,96,0.00,,,0.00,WUHU216DAVISVP2,2013-05-25 12:01:00,
2013-05-25 08:06:00,44.4,43.3,29.94,NNE,23,5.0,10.0,96,0.00,,,0.00,WUHU216DAVISVP2,2013-05-25 12:06:00,
2013-05-25 08:11:00,44.4,43.3,29.94,NNW,339,4.8,11.0,96,0.00,,,0.00,WUHU216DAVISVP2,2013-05-25 12:11:00,
2013-05-25 08:16:00,44.4,43.3,29.94,West,271,6.0,11.0,96,0.00,,,0.00,WUHU216DAVISVP2,2013-05-25 12:16:00,
2013-05-25 08:21:00,44.5,43.4,29.94,NNW,340,6.7,15.0,96,0.00,,,0.00,WUHU216DAVISVP2,2013-05-25 12:21:00,
2013-05-25 08:26:00,44.5,43.1,29.94,NNW,335,5.6,17.0,95,0.00,,,0.00,WUHU216DAVISVP2,2013-05-25 12:26:00,
2013-05-25 08:31:00,44.6,43.2,29.94,NNW,336,7.3,17.0,95,0.00,,,0.00,WUHU216DAVISVP2,2013-05-25 12:31:00,
2013-05-25 08:36:00,44.7,43.6,29.94,NW,324,3.7,16.0,96,0.00,,,0.00,WUHU216DAVISVP2,2013-05-25 12:36:00,
2013-05-25 08:41:00,44.7,43.3,29.94,NNW,345,4.0,16.0,95,0.00,,,0.00,WUHU216DAVISVP2,2013-05-25 12:41:00,
2013-05-25 08:46:00,44.8,43.4,29.94,NNW,340,9.0,14.0,95,0.00,,,0.00,WUHU216DAVISVP2,2013-05-25 12:46:00,
2013-05-25 08:51:00,44.8,43.7,29.94,NNW,331,5.7,13.0,96,0.00,,,0.00,WUHU216DAVISVP2,2013-05-25 12:51:00,
2013-05-25 08:56:00,44.9,43.5,29.94,NW,321,8.0,13.0,95,0.00,,,0.00,WUHU216DAVISVP2,2013-05-25 12:56:00,
2013-05-25 09:01:00,45.1,43.8,29.94,NW,314,5.0,13.0,95,0.00,,,0.00,WUHU216DAVISVP2,2013-05-25 13:01:00,
2013-05-25 09:06:00,45.2,43.9,29.94,WNW,284,8.0,14.0,95,0.00,,,0.00,WUHU216DAVISVP2,2013-05-25 13:06:00,
2013-05-25 09:11:00,45.2,43.8,29.94,WNW,295,5.0,16.0,95,0.00,,,0.00,WUHU216DAVISVP2,2013-05-25 13:11:00,
2013-05-25 09:16:00,45.3,43.9,29.94,North,350,7.5,16.0,95,0.00,,,0.00,WUHU216DAVISVP2,2013-05-25 13:16:00,
2013-05-25 09:21:00,45.3,43.9,29.93,NW,320,5.8,15.0,95,0.00,,,0.00,WUHU216DAVISVP2,2013-05-25 13:21:00,
2013-05-25 09:26:00,45.5,44.1,29.93,NNE,13,5.0,15.0,95,0.00,,,0.00,WUHU216DAVISVP2,2013-05-25 13:26:00,
2013-05-25 09:31:00,45.6,44.2,29.93,NNW,345,9.0,13.0,95,0.00,,,0.00,WUHU216DAVISVP2,2013-05-25 13:31:00,
2013-05-25 09:36:00,45.6,44.2,29.93,NNW,327,5.5,13.0,95,0.00,,,0.00,WUHU216DAVISVP2,2013-05-25 13:36:00,
2013-05-25 09:41:00,45.6,44.2,29.93,NW,315,9.0,14.0,95,0.00,,,0.00,WUHU216DAVISVP2,2013-05-25 13:41:00,
2013-05-25 09:46:00,45.4,44.0,29.94,NNW,339,4.8,15.0,95,0.00,,,0.00,WUHU216DAVISVP2,2013-05-25 13:46:00,
2013-05-25 09:51:00,45.5,44.1,29.94,NNW,344,4.3,15.0,95,0.00,,,0.00,WUHU216DAVISVP2,2013-05-25 13:51:00,
2013-05-25 09:56:00,45.6,44.2,29.93,NNE,18,11.0,15.0,95,0.00,,,0.00,WUHU216DAVISVP2,2013-05-25 13:56:00,
2013-05-25 10:01:00,45.5,43.9,29.93,NW,321,4.1,13.0,94,0.00,,,0.00,WUHU216DAVISVP2,2013-05-25 14:01:00,
2013-05-25 10:06:00,45.5,43.9,29.93,NNW,342,7.7,13.0,94,0.00,,,0.00,WUHU216DAVISVP2,2013-05-25 14:06:00,
2013-05-25 10:11:00,45.5,43.8,29.93,NE,37,9.0,18.0,94,0.00,,,0.00,WUHU216DAVISVP2,2013-05-25 14:11:00,
2013-05-25 10:16:00,45.4,43.7,29.93,NNE,28,5.0,18.0,94,0.00,,,0.00,WUHU216DAVISVP2,2013-05-25 14:16:00,
2013-05-25 10:21:00,45.5,43.8,29.93,NNE,16,11.0,18.0,94,0.00,,,0.00,WUHU216DAVISVP2,2013-05-25 14:21:00,
2013-05-25 10:26:00,45.4,43.7,29.93,WNW,293,9.0,20.0,94,0.00,,,0.00,WUHU216DAVISVP2,2013-05-25 14:26:00,
2013-05-25 10:31:00,45.4,44.0,29.93,NNW,343,5.0,20.0,95,0.00,,,0.00,WUHU216DAVISVP2,2013-05-25 14:31:00,
2013-05-25 10:36:00,45.4,44.0,29.93,North,359,13.0,20.0,95,0.00,,,0.00,WUHU216DAVISVP2,2013-05-25 14:36:00,
2013-05-25 10:41:00,45.3,43.6,29.93,NNE,27,16.0,20.0,94,0.00,,,0.00,WUHU216DAVISVP2,2013-05-25 14:41:00,
2013-05-25 10:46:00,45.3,43.6,29.92,North,6,7.4,17.0,94,0.00,,,0.00,WUHU216DAVISVP2,2013-05-25 14:46:00,
2013-05-25 10:51:00,45.4,43.7,29.92,NE,36,6.0,17.0,94,0.00,,,0.00,WUHU216DAVISVP2,2013-05-25 14:51:00,
2013-05-25 10:56:00,45.5,43.8,29.92,NNW,340,7.0,16.0,94,0.00,,,0.00,WUHU216DAVISVP2,2013-05-25 14:56:00,
2013-05-25 11:01:00,45.5,43.6,29.92,West,269,11.0,16.0,93,0.00,,,0.00,WUHU216DAVISVP2,2013-05-25 15:01:00,
2013-05-25 11:06:00,45.5,43.6,29.92,NW,316,7.9,16.0,93,0.00,,,0.00,WUHU216DAVISVP2,2013-05-25 15:06:00,
2013-05-25 11:11:00,45.6,44.0,29.92,North,7,7.7,16.0,94,0.00,,,0.00,WUHU216DAVISVP2,2013-05-25 15:11:00,
2013-05-25 11:16:00,45.7,43.8,29.92,NNE,30,10.0,18.0,93,0.00,,,0.00,WUHU216DAVISVP2,2013-05-25 15:16:00,
2013-05-25 11:21:00,45.7,43.7,29.92,NNW,338,8.5,18.0,93,0.00,,,0.00,WUHU216DAVISVP2,2013-05-25 15:21:00,
2013-05-25 11:26:00,45.7,43.7,29.92,NNW,327,6.7,18.0,93,0.00,,,0.00,WUHU216DAVISVP2,2013-05-25 15:26:00,
2013-05-25 11:31:00,45.7,43.7,29.92,NNW,342,6.1,17.0,93,0.00,,,0.00,WUHU216DAVISVP2,2013-05-25 15:31:00,
2013-05-25 11:36:00,45.7,43.7,29.93,NNE,18,9.0,17.0,93,0.00,,,0.00,WUHU216DAVISVP2,2013-05-25 15:36:00,
2013-05-25 11:41:00,45.7,43.7,29.93,NNW,344,6.2,14.0,93,0.00,,,0.00,WUHU216DAVISVP2,2013-05-25 15:41:00,
2013-05-25 11:46:00,45.7,44.0,29.93,NW,322,9.0,14.0,94,0.00,,,0.00,WUHU216DAVISVP2,2013-05-25 15:46:00,
2013-05-25 11:51:00,45.6,43.6,29.93,North,358,6.6,13.0,93,0.00,,,0.00,WUHU216DAVISVP2,2013-05-25 15:51:00,
2013-05-25 11:56:00,45.5,43.9,29.93,NNE,14,8.0,14.0,94,0.00,,,0.00,WUHU216DAVISVP2,2013-05-25 15:56:00,
2013-05-25 12:01:00,45.5,43.8,29.93,NNW,348,6.9,16.0,94,0.00,,,0.00,WUHU216DAVISVP2,2013-05-25 16:01:00,
2013-05-25 12:06:00,45.5,43.8,29.93,North,350,5.2,16.0,94,0.00,,,0.00,WUHU216DAVISVP2,2013-05-25 16:06:00,
2013-05-25 12:11:00,45.5,43.8,29.93,WNW,302,7.0,16.0,94,0.00,,,0.00,WUHU216DAVISVP2,2013-05-25 16:11:00,
2013-05-25 12:16:00,45.5,43.8,29.93,WNW,302,6.0,16.0,94,0.00,,,0.00,WUHU216DAVISVP2,2013-05-25 16:16:00,
2013-05-25 12:21:00,45.5,43.8,29.93,North,358,7.5,18.0,94,0.00,,,0.00,WUHU216DAVISVP2,2013-05-25 16:21:00,
2013-05-25 12:26:00,45.6,43.9,29.92,NW,321,7.0,18.0,94,0.00,,,0.00,WUHU216DAVISVP2,2013-05-25 16:26:00,
2013-05-25 12:31:00,45.7,44.0,29.93,North,8,18.0,18.0,94,0.00,,,0.00,WUHU216DAVISVP2,2013-05-25 16:31:00,
2013-05-25 12:36:00,45.6,43.9,29.93,NNW,338,7.7,19.0,94,0.00,,,0.00,WUHU216DAVISVP2,2013-05-25 16:36:00,
2013-05-25 12:41:00,45.7,44.0,29.93,NNW,334,5.2,19.0,94,0.00,,,0.00,WUHU216DAVISVP2,2013-05-25 16:41:00,
2013-05-25 12:46:00,45.7,44.0,29.93,NW,312,6.9,19.0,94,0.00,,,0.00,WUHU216DAVISVP2,2013-05-25 16:46:00,
2013-05-25 12:51:00,45.7,44.0,29.93,WNW,300,7.2,18.0,94,0.00,,,0.00,WUHU216DAVISVP2,2013-05-25 16:51:00,
2013-05-25 12:56:00,45.6,43.9,29.93,NNW,338,7.3,18.0,94,0.00,,,0.00,WUHU216DAVISVP2,2013-05-25 16:56:00,
2013-05-25 13:01:00,45.6,43.6,29.93,NW,322,9.0,17.0,93,0.00,,,0.00,WUHU216DAVISVP2,2013-05-25 17:01:00,
2013-05-25 13:06:00,45.6,43.6,29.93,NW,319,6.9,17.0,93,0.00,,,0.00,WUHU216DAVISVP2,2013-05-25 17:06:00,
2013-05-25 13:11:00,45.6,43.6,29.93,NNW,334,5.7,18.0,93,0.00,,,0.00,WUHU216DAVISVP2,2013-05-25 17:11:00,
2013-05-25 13:16:00,45.6,43.6,29.93,NNW,339,7.6,18.0,93,0.00,,,0.00,WUHU216DAVISVP2,2013-05-25 17:16:00,
2013-05-25 13:21:00,45.5,43.5,29.93,NW,317,7.0,17.0,93,0.00,,,0.00,WUHU216DAVISVP2,2013-05-25 17:21:00,
2013-05-25 13:26:00,45.5,43.5,29.93,NNW,345,6.5,17.0,93,0.00,,,0.00,WUHU216DAVISVP2,2013-05-25 17:26:00,
2013-05-25 13:31:00,45.6,43.9,29.93,North,7,6.9,17.0,94,0.00,,,0.00,WUHU216DAVISVP2,2013-05-25 17:31:00,
2013-05-25 13:36:00,45.8,44.1,29.93,NNW,330,6.6,20.0,94,0.00,,,0.00,WUHU216DAVISVP2,2013-05-25 17:36:00,
2013-05-25 13:41:00,46.1,44.4,29.93,NNW,339,4.5,20.0,94,0.00,,,0.00,WUHU216DAVISVP2,2013-05-25 17:41:00,
2013-05-25 13:46:00,46.2,44.2,29.93,NW,317,7.0,19.0,93,0.00,,,0.00,WUHU216DAVISVP2,2013-05-25 17:46:00,
2013-05-25 13:51:00,46.3,44.6,29.93,NNE,30,6.0,19.0,94,0.00,,,0.00,WUHU216DAVISVP2,2013-05-25 17:51:00,
2013-05-25 13:56:00,46.3,44.6,29.93,WNW,297,6.0,17.0,94,0.00,,,0.00,WUHU216DAVISVP2,2013-05-25 17:56:00,
2013-05-25 14:01:00,46.3,44.6,29.93,NE,43,8.0,18.0,94,0.00,,,0.00,WUHU216DAVISVP2,2013-05-25 18:01:00,
2013-05-25 14:06:00,46.3,44.4,29.93,North,7,12.0,18.0,93,0.00,,,0.00,WUHU216DAVISVP2,2013-05-25 18:06:00,
2013-05-25 14:11:00,46.3,44.4,29.93,NW,324,7.9,17.0,93,0.00,,,0.00,WUHU216DAVISVP2,2013-05-25 18:11:00,
2013-05-25 14:16:00,46.1,43.9,29.93,NNW,343,13.0,23.0,92,0.00,,,0.00,WUHU216DAVISVP2,2013-05-25 18:16:00,
2013-05-25 14:21:00,45.9,43.7,29.93,North,349,7.9,23.0,92,0.00,,,0.00,WUHU216DAVISVP2,2013-05-25 18:21:00,
2013-05-25 14:26:00,45.9,43.7,29.94,NNW,347,10.0,23.0,92,0.00,,,0.00,WUHU216DAVISVP2,2013-05-25 18:26:00,
2013-05-25 14:31:00,45.8,43.3,29.93,NNE,13,13.0,23.0,91,0.00,,,0.00,WUHU216DAVISVP2,2013-05-25 18:31:00,
2013-05-25 14:36:00,45.7,42.9,29.94,North,352,11.0,20.0,90,0.00,,,0.00,WUHU216DAVISVP2,2013-05-25 18:36:00,
2013-05-25 14:41:00,45.7,43.2,29.94,NNW,340,5.1,20.0,91,0.00,,,0.00,WUHU216DAVISVP2,2013-05-25 18:41:00,
2013-05-25 14:46:00,45.6,42.8,29.94,NNW,340,9.6,20.0,90,0.00,,,0.00,WUHU216DAVISVP2,2013-05-25 18:46:00,
2013-05-25 14:51:00,45.6,42.8,29.94,NNW,327,8.9,20.0,90,0.00,,,0.00,WUHU216DAVISVP2,2013-05-25 18:51:00,
2013-05-25 14:56:00,45.5,42.7,29.94,NNE,16,11.0,20.0,90,0.00,,,0.00,WUHU216DAVISVP2,2013-05-25 18:56:00,
2013-05-25 15:01:00,45.5,43.0,29.95,North,4,17.0,20.0,91,0.00,,,0.00,WUHU216DAVISVP2,2013-05-25 19:01:00,
2013-05-25 15:06:00,45.4,42.6,29.95,NNE,29,10.0,20.0,90,0.00,,,0.00,WUHU216DAVISVP2,2013-05-25 19:06:00,
2013-05-25 15:11:00,45.3,42.8,29.95,NNE,25,12.0,18.0,91,0.00,,,0.00,WUHU216DAVISVP2,2013-05-25 19:11:00,
2013-05-25 15:16:00,45.3,43.1,29.95,NNW,341,8.7,18.0,92,0.00,,,0.00,WUHU216DAVISVP2,2013-05-25 19:16:00,
2013-05-25 15:21:00,45.2,43.0,29.96,NNW,347,7.1,18.0,92,0.00,,,0.00,WUHU216DAVISVP2,2013-05-25 19:21:00,
2013-05-25 15:26:00,45.2,43.0,29.96,NNE,26,22.0,23.0,92,0.00,,,0.00,WUHU216DAVISVP2,2013-05-25 19:26:00,
2013-05-25 15:31:00,45.1,42.6,29.96,NNW,345,9.0,23.0,91,0.00,,,0.00,WUHU216DAVISVP2,2013-05-25 19:31:00,
2013-05-25 15:36:00,45.1,42.9,29.96,North,3,10.3,23.0,92,0.00,,,0.00,WUHU216DAVISVP2,2013-05-25 19:36:00,
2013-05-25 15:41:00,45.0,42.8,29.96,NNW,334,6.4,23.0,92,0.00,,,0.00,WUHU216DAVISVP2,2013-05-25 19:41:00,
2013-05-25 15:46:00,44.9,42.7,29.96,NNW,327,6.5,22.0,92,0.00,,,0.00,WUHU216DAVISVP2,2013-05-25 19:46:00,
2013-05-25 15:51:00,44.9,42.7,29.96,NNW,335,9.0,22.0,92,0.00,,,0.00,WUHU216DAVISVP2,2013-05-25 19:51:00,
2013-05-25 15:56:00,44.9,43.0,29.96,North,11,4.4,22.0,93,0.00,,,0.00,WUHU216DAVISVP2,2013-05-25 19:56:00,
2013-05-25 16:01:00,44.9,43.0,29.96,West,273,7.0,22.0,93,0.00,,,0.00,WUHU216DAVISVP2,2013-05-25 20:01:00,
2013-05-25 16:06:00,45.0,43.1,29.96,NW,324,6.0,22.0,93,0.00,,,0.00,WUHU216DAVISVP2,2013-05-25 20:06:00,
2013-05-25 16:11:00,45.2,43.6,29.96,North,354,6.0,17.0,94,0.00,,,0.00,WUHU216DAVISVP2,2013-05-25 20:11:00,
2013-05-25 16:16:00,45.3,43.7,29.96,North,6,5.0,16.0,94,0.00,,,0.00,WUHU216DAVISVP2,2013-05-25 20:16:00,
2013-05-25 16:21:00,45.3,43.7,29.96,North,358,6.0,21.0,94,0.00,,,0.00,WUHU216DAVISVP2,2013-05-25 20:21:00,
2013-05-25 16:26:00,45.3,43.6,29.96,NNW,335,7.8,21.0,94,0.00,,,0.00,WUHU216DAVISVP2,2013-05-25 20:26:00,
2013-05-25 16:31:00,45.2,43.3,29.96,NNW,328,5.8,21.0,93,0.00,,,0.00,WUHU216DAVISVP2,2013-05-25 20:31:00,
2013-05-25 16:36:00,45.1,43.2,29.96,North,5,10.0,20.0,93,0.00,,,0.00,WUHU216DAVISVP2,2013-05-25 20:36:00,
2013-05-25 16:41:00,45.0,43.1,29.96,NNW,334,6.2,20.0,93,0.00,,,0.00,WUHU216DAVISVP2,2013-05-25 20:41:00,
2013-05-25 16:46:00,44.9,43.0,29.96,NE,50,6.0,19.0,93,0.00,,,0.00,WUHU216DAVISVP2,2013-05-25 20:46:00,
2013-05-25 16:51:00,44.7,42.8,29.96,NNW,345,8.0,19.0,93,0.00,,,0.00,WUHU216DAVISVP2,2013-05-25 20:51:00,
2013-05-25 16:56:00,44.7,42.8,29.96,NNW,337,6.3,18.0,93,0.00,,,0.00,WUHU216DAVISVP2,2013-05-25 20:56:00,
2013-05-25 17:01:00,44.5,42.6,29.96,North,351,4.5,18.0,93,0.00,,,0.00,WUHU216DAVISVP2,2013-05-25 21:01:00,
2013-05-25 17:06:00,44.5,42.9,29.96,North,9,4.6,18.0,94,0.00,,,0.00,WUHU216DAVISVP2,2013-05-25 21:06:00,
2013-05-25 17:11:00,44.5,42.9,29.96,NNE,26,7.0,15.0,94,0.00,,,0.00,WUHU216DAVISVP2,2013-05-25 21:11:00,
2013-05-25 17:16:00,44.5,42.8,29.96,NNW,330,6.6,15.0,94,0.00,,,0.00,WUHU216DAVISVP2,2013-05-25 21:16:00,
2013-05-25 17:21:00,44.5,42.6,29.96,NNW,343,7.2,15.0,93,0.00,,,0.00,WUHU216DAVISVP2,2013-05-25 21:21:00,
2013-05-25 17:26:00,44.5,42.6,29.96,NNW,331,5.3,15.0,93,0.00,,,0.00,WUHU216DAVISVP2,2013-05-25 21:26:00,
2013-05-25 17:31:00,44.5,42.6,29.96,NW,317,8.0,15.0,93,0.00,,,0.00,WUHU216DAVISVP2,2013-05-25 21:31:00,
2013-05-25 17:36:00,44.5,42.8,29.96,NNW,339,6.4,15.0,94,0.00,,,0.00,WUHU216DAVISVP2,2013-05-25 21:36:00,
2013-05-25 17:41:00,44.5,42.8,29.96,North,7,6.5,14.0,94,0.00,,,0.00,WUHU216DAVISVP2,2013-05-25 21:41:00,
2013-05-25 17:46:00,44.6,42.9,29.96,NNW,345,7.0,19.0,94,0.00,,,0.00,WUHU216DAVISVP2,2013-05-25 21:46:00,
2013-05-25 17:51:00,44.6,42.9,29.95,NNW,347,6.1,19.0,94,0.00,,,0.00,WUHU216DAVISVP2,2013-05-25 21:51:00,
2013-05-25 17:56:00,44.7,43.0,29.95,NW,322,6.5,19.0,94,0.00,,,0.00,WUHU216DAVISVP2,2013-05-25 21:56:00,
2013-05-25 18:01:00,44.7,42.8,29.95,NW,326,6.5,17.0,93,0.00,,,0.00,WUHU216DAVISVP2,2013-05-25 22:01:00,
2013-05-25 18:06:00,44.6,42.7,29.95,NW,318,8.5,17.0,93,0.00,,,0.00,WUHU216DAVISVP2,2013-05-25 22:06:00,
2013-05-25 18:11:00,44.7,42.8,29.95,NW,325,11.0,15.0,93,0.00,,,0.00,WUHU216DAVISVP2,2013-05-25 22:11:00,
2013-05-25 18:17:00,44.7,42.8,29.95,NNW,329,5.6,15.0,93,0.00,,,0.00,WUHU216DAVISVP2,2013-05-25 22:17:00,
2013-05-25 18:22:00,44.7,42.8,29.95,NNW,338,6.7,15.0,93,0.00,,,0.00,WUHU216DAVISVP2,2013-05-25 22:22:00,
2013-05-25 18:26:00,44.7,42.8,29.95,North,356,9.0,19.0,93,0.00,,,0.00,WUHU216DAVISVP2,2013-05-25 22:26:00,
2013-05-25 18:32:00,44.7,42.8,29.95,NNW,340,7.0,19.0,93,0.00,,,0.00,WUHU216DAVISVP2,2013-05-25 22:32:00,
2013-05-25 18:37:00,44.7,42.8,29.95,NW,307,9.0,19.0,93,0.00,,,0.00,WUHU216DAVISVP2,2013-05-25 22:37:00,
2013-05-25 18:42:00,44.8,42.9,29.95,NW,307,7.0,18.0,93,0.00,,,0.00,WUHU216DAVISVP2,2013-05-25 22:42:00,
2013-05-25 18:47:00,44.7,42.8,29.95,NNW,338,6.1,16.0,93,0.00,,,0.00,WUHU216DAVISVP2,2013-05-25 22:47:00,
2013-05-25 18:52:00,44.7,42.8,29.96,North,351,13.0,16.0,93,0.00,,,0.00,WUHU216DAVISVP2,2013-05-25 22:52:00,
2013-05-25 18:57:00,44.8,42.6,29.96,North,9,10.0,16.0,92,0.00,,,0.00,WUHU216DAVISVP2,2013-05-25 22:57:00,
2013-05-25 19:02:00,44.8,42.6,29.96,NNW,335,11.0,20.0,92,0.00,,,0.00,WUHU216DAVISVP2,2013-05-25 23:02:00,
2013-05-25 19:07:00,44.9,42.7,29.96,NW,317,7.0,20.0,92,0.00,,,0.00,WUHU216DAVISVP2,2013-05-25 23:07:00,
2013-05-25 19:12:00,44.9,42.7,29.96,North,3,9.0,19.0,92,0.00,,,0.00,WUHU216DAVISVP2,2013-05-25 23:12:00,
2013-05-25 19:17:00,45.0,42.8,29.96,WNW,291,13.0,19.0,92,0.00,,,0.00,WUHU216DAVISVP2,2013-05-25 23:17:00,
2013-05-25 19:22:00,45.0,42.8,29.96,NE,37,10.0,17.0,92,0.00,,,0.00,WUHU216DAVISVP2,2013-05-25 23:22:00,
2013-05-25 19:27:00,45.1,42.9,29.96,NW,322,11.0,17.0,92,0.00,,,0.00,WUHU216DAVISVP2,2013-05-25 23:27:00,
2013-05-25 19:32:00,45.1,42.6,29.96,NW,318,6.5,17.0,91,0.00,,,0.00,WUHU216DAVISVP2,2013-05-25 23:32:00,
2013-05-25 19:37:00,45.0,42.5,29.96,NW,321,7.7,15.0,91,0.00,,,0.00,WUHU216DAVISVP2,2013-05-25 23:37:00,
2013-05-25 19:42:00,45.0,42.5,29.96,WNW,285,15.0,15.0,91,0.00,,,0.00,WUHU216DAVISVP2,2013-05-25 23:42:00,
2013-05-25 19:47:00,44.9,42.4,29.96,NNW,342,6.5,15.0,91,0.00,,,0.00,WUHU216DAVISVP2,2013-05-25 23:47:00,
2013-05-25 19:52:00,44.8,42.3,29.96,NW,317,10.0,15.0,91,0.00,,,0.00,WUHU216DAVISVP2,2013-05-25 23:52:00,
2013-05-25 19:57:00,44.7,42.2,29.96,NW,313,5.7,15.0,91,0.00,,,0.00,WUHU216DAVISVP2,2013-05-25 23:57:00,
2013-05-25 20:02:00,44.7,42.2,29.97,NW,321,5.5,16.0,91,0.00,,,0.00,WUHU216DAVISVP2,2013-05-26 00:02:00,
2013-05-25 20:07:00,44.7,42.2,29.97,NW,325,5.2,16.0,91,0.00,,,0.00,WUHU216DAVISVP2,2013-05-26 00:07:00,
2013-05-25 20:12:00,44.7,42.2,29.97,North,357,7.6,22.0,91,0.00,,,0.00,WUHU216DAVISVP2,2013-05-26 00:12:00,
2013-05-25 20:17:00,44.7,42.2,29.97,NNW,332,6.4,22.0,91,0.00,,,0.00,WUHU216DAVISVP2,2013-05-26 00:17:00,
2013-05-25 20:22:00,44.7,42.2,29.97,NW,319,7.4,22.0,91,0.00,,,0.00,WUHU216DAVISVP2,2013-05-26 00:22:00,
2013-05-25 20:27:00,44.6,42.1,29.97,NW,320,5.8,22.0,91,0.00,,,0.00,WUHU216DAVISVP2,2013-05-26 00:27:00,
2013-05-25 20:32:00,44.6,42.4,29.97,NNW,341,4.5,17.0,92,0.00,,,0.00,WUHU216DAVISVP2,2013-05-26 00:32:00,
2013-05-25 20:37:00,44.5,42.3,29.96,NNW,335,5.1,17.0,92,0.00,,,0.00,WUHU216DAVISVP2,2013-05-26 00:37:00,
2013-05-25 20:42:00,44.5,42.3,29.96,North,5,11.0,17.0,92,0.00,,,0.00,WUHU216DAVISVP2,2013-05-26 00:42:00,
2013-05-25 20:47:00,44.5,42.3,29.97,NNE,23,5.0,12.0,92,0.00,,,0.00,WUHU216DAVISVP2,2013-05-26 00:47:00,
2013-05-25 20:52:00,44.4,42.2,29.97,North,359,6.0,12.0,92,0.00,,,0.00,WUHU216DAVISVP2,2013-05-26 00:52:00,
2013-05-25 20:57:00,44.4,42.2,29.97,WNW,293,8.0,13.0,92,0.00,,,0.00,WUHU216DAVISVP2,2013-05-26 00:57:00,
2013-05-25 21:02:00,44.4,42.2,29.97,NW,310,5.4,13.0,92,0.00,,,0.00,WUHU216DAVISVP2,2013-05-26 01:02:00,
2013-05-25 21:07:00,44.4,42.2,29.97,NNW,346,5.1,13.0,92,0.00,,,0.00,WUHU216DAVISVP2,2013-05-26 01:07:00,
2013-05-25 21:12:00,44.3,42.1,29.97,NNW,328,7.1,13.0,92,0.00,,,0.00,WUHU216DAVISVP2,2013-05-26 01:12:00,
2013-05-25 21:17:00,44.4,42.2,29.96,NW,326,7.3,13.0,92,0.00,,,0.00,WUHU216DAVISVP2,2013-05-26 01:17:00,
2013-05-25 21:22:00,44.3,42.1,29.96,NW,324,6.0,13.0,92,0.00,,,0.00,WUHU216DAVISVP2,2013-05-26 01:22:00,
2013-05-25 21:27:00,44.3,42.1,29.96,NNW,339,5.1,13.0,92,0.00,,,0.00,WUHU216DAVISVP2,2013-05-26 01:27:00,
2013-05-25 21:32:00,44.3,42.1,29.97,NW,319,5.0,13.0,92,0.00,,,0.00,WUHU216DAVISVP2,2013-05-26 01:32:00,
2013-05-25 21:37:00,44.3,41.8,29.96,NW,313,9.1,14.0,91,0.00,,,0.00,WUHU216DAVISVP2,2013-05-26 01:37:00,
2013-05-25 21:42:00,44.3,41.8,29.96,NNE,16,9.0,14.0,91,0.00,,,0.00,WUHU216DAVISVP2,2013-05-26 01:42:00,
2013-05-25 21:47:00,44.3,41.8,29.96,NW,324,6.6,16.0,91,0.00,,,0.00,WUHU216DAVISVP2,2013-05-26 01:47:00,
2013-05-25 21:52:00,44.2,41.7,29.96,North,359,6.0,16.0,91,0.00,,,0.00,WUHU216DAVISVP2,2013-05-26 01:52:00,
2013-05-25 21:57:00,44.2,41.7,29.96,WNW,295,6.0,15.0,91,0.00,,,0.00,WUHU216DAVISVP2,2013-05-26 01:57:00,
2013-05-25 22:02:00,44.2,41.7,29.96,WNW,300,9.0,15.0,91,0.00,,,0.00,WUHU216DAVISVP2,2013-05-26 02:02:00,
2013-05-25 22:07:00,44.2,41.7,29.96,NW,317,10.0,15.0,91,0.00,,,0.00,WUHU216DAVISVP2,2013-05-26 02:07:00,
2013-05-25 22:12:00,44.2,41.7,29.95,NW,322,11.0,16.0,91,0.00,,,0.00,WUHU216DAVISVP2,2013-05-26 02:12:00,
2013-05-25 22:17:00,44.1,41.6,29.96,North,353,12.0,16.0,91,0.00,,,0.00,WUHU216DAVISVP2,2013-05-26 02:17:00,
2013-05-25 22:22:00,44.2,41.7,29.95,NNE,15,13.0,17.0,91,0.00,,,0.00,WUHU216DAVISVP2,2013-05-26 02:22:00,
2013-05-25 22:27:00,44.2,41.7,29.95,NW,310,6.2,17.0,91,0.00,,,0.00,WUHU216DAVISVP2,2013-05-26 02:27:00,
2013-05-25 22:32:00,44.2,41.4,29.95,NNW,347,7.9,17.0,90,0.00,,,0.00,WUHU216DAVISVP2,2013-05-26 02:32:00,
2013-05-25 22:37:00,44.3,41.5,29.95,NW,320,7.8,17.0,90,0.00,,,0.00,WUHU216DAVISVP2,2013-05-26 02:37:00,
2013-05-25 22:42:00,44.3,41.5,29.95,WNW,293,5.0,15.0,90,0.00,,,0.00,WUHU216DAVISVP2,2013-05-26 02:42:00,
2013-05-25 22:47:00,44.2,41.4,29.95,NNE,27,6.0,15.0,90,0.00,,,0.00,WUHU216DAVISVP2,2013-05-26 02:47:00,
2013-05-25 22:52:00,44.2,41.1,29.94,NNW,334,5.3,14.0,89,0.00,,,0.00,WUHU216DAVISVP2,2013-05-26 02:52:00,
2013-05-25 22:57:00,44.4,41.0,29.94,NW,316,13.0,19.0,88,0.00,,,0.00,WUHU216DAVISVP2,2013-05-26 02:57:00,
2013-05-25 23:02:00,44.4,41.1,29.94,NNW,331,9.2,19.0,88,0.00,,,0.00,WUHU216DAVISVP2,2013-05-26 03:02:00,
2013-05-25 23:07:00,44.5,41.1,29.94,NNW,335,10.0,19.0,88,0.00,,,0.00,WUHU216DAVISVP2,2013-05-26 03:07:00,
2013-05-25 23:12:00,44.4,41.0,29.94,NNW,331,6.4,19.0,88,0.00,,,0.00,WUHU216DAVISVP2,2013-05-26 03:12:00,
2013-05-25 23:17:00,44.4,41.0,29.94,NW,312,7.0,18.0,88,0.00,,,0.00,WUHU216DAVISVP2,2013-05-26 03:17:00,
2013-05-25 23:22:00,44.3,40.9,29.94,NNW,347,6.0,16.0,88,0.00,,,0.00,WUHU216DAVISVP2,2013-05-26 03:22:00,
2013-05-25 23:27:00,44.4,41.0,29.94,NW,321,5.4,19.0,88,0.00,,,0.00,WUHU216DAVISVP2,2013-05-26 03:27:00,
2013-05-25 23:32:00,44.4,41.0,29.94,North,4,9.0,19.0,88,0.00,,,0.00,WUHU216DAVISVP2,2013-05-26 03:32:00,
2013-05-25 23:37:00,44.5,41.1,29.94,North,350,4.6,19.0,88,0.00,,,0.00,WUHU216DAVISVP2,2013-05-26 03:37:00,
2013-05-25 23:42:00,44.4,40.8,29.94,NW,313,7.6,19.0,87,0.00,,,0.00,WUHU216DAVISVP2,2013-05-26 03:42:00,
2013-05-25 23:47:00,44.4,40.8,29.93,NNW,330,6.1,17.0,87,0.00,,,0.00,WUHU216DAVISVP2,2013-05-26 03:47:00,
2013-05-25 23:52:00,44.5,40.8,29.93,NW,322,6.4,18.0,87,0.00,,,0.00,WUHU216DAVISVP2,2013-05-26 03:52:00,
2013-05-25 23:57:00,44.5,40.8,29.93,NNE,26,12.0,18.0,87,0.00,,,0.00,WUHU216DAVISVP2,2013-05-26 03:57:00,